Time,TemperatureF,DewpointF,PressureIn,WindDirection,WindDirectionDegrees,WindSpeedMPH,WindSpeedGustMPH,Humidity,HourlyPrecipIn,Conditions,Clouds,dailyrainin,SoftwareType,DateUTC
2013-05-14 18:54:00,87.0,66.1,29.57,SSW,200,8.0,13.0,50,0.00,,,0.00,Wunderground v.1.15,2013-05-14 23:54:00,
2013-05-14 18:55:00,86.9,66.0,29.56,South,170,8.0,13.0,50,0.00,,,0.00,Wunderground v.1.15,2013-05-14 23:55:00,
2013-05-14 18:56:00,86.9,66.0,29.57,SSW,207,9.0,13.0,50,0.00,,,0.00,Wunderground v.1.15,2013-05-14 23:56:00,
2013-05-14 18:57:00,86.8,65.9,29.56,South,182,9.0,13.0,50,0.00,,,0.00,Wunderground v.1.15,2013-05-14 23:57:00,
2013-05-14 19:02:00,86.5,66.2,29.56,South,177,9.0,9.0,51,0.00,,,0.00,Wunderground v.1.15,2013-05-15 00:02:00,
2013-05-14 19:04:00,86.5,65.7,29.56,SSW,211,10.0,12.0,50,0.00,,,0.00,Wunderground v.1.15,2013-05-15 00:04:00,
2013-05-14 19:05:00,86.4,65.6,29.57,SSW,212,9.0,12.0,50,0.00,,,0.00,Wunderground v.1.15,2013-05-15 00:05:00,
2013-05-14 19:10:00,86.2,65.4,29.57,SSW,213,9.0,13.0,50,0.00,,,0.00,Wunderground v.1.15,2013-05-15 00:10:00,
2013-05-14 19:11:00,86.2,65.4,29.57,SSW,207,9.0,13.0,50,0.00,,,0.00,Wunderground v.1.15,2013-05-15 00:11:00,
2013-05-14 19:12:00,86.1,65.3,29.57,SSW,211,10.0,13.0,50,0.00,,,0.00,Wunderground v.1.15,2013-05-15 00:12:00,
2013-05-14 19:13:00,86.1,65.9,29.57,SSW,210,10.0,13.0,51,0.00,,,0.00,Wunderground v.1.15,2013-05-15 00:13:00,
2013-05-14 19:15:00,86.1,65.9,29.57,South,190,10.0,13.0,51,0.00,,,0.00,Wunderground v.1.15,2013-05-15 00:15:00,
2013-05-14 19:18:00,85.9,65.7,29.56,SW,217,10.0,19.0,51,0.00,,,0.00,Wunderground v.1.15,2013-05-15 00:18:00,
2013-05-14 19:20:00,85.8,65.6,29.56,SSW,206,10.0,10.0,51,0.00,,,0.00,Wunderground v.1.15,2013-05-15 00:20:00,
2013-05-14 19:21:00,85.8,65.6,29.56,SSW,208,10.0,12.0,51,0.00,,,0.00,Wunderground v.1.15,2013-05-15 00:21:00,
2013-05-14 19:25:00,85.5,65.3,29.56,SSW,213,10.0,13.0,51,0.00,,,0.00,Wunderground v.1.15,2013-05-15 00:25:00,
2013-05-14 19:26:00,85.4,65.2,29.56,SSW,206,10.0,13.0,51,0.00,,,0.00,Wunderground v.1.15,2013-05-15 00:26:00,
2013-05-14 19:28:00,85.4,65.2,29.56,SW,219,10.0,17.0,51,0.00,,,0.00,Wunderground v.1.15,2013-05-15 00:28:00,
2013-05-14 19:29:00,85.3,65.1,29.56,SSW,209,11.0,17.0,51,0.00,,,0.00,Wunderground v.1.15,2013-05-15 00:29:00,
2013-05-14 19:32:00,85.2,64.5,29.56,SW,224,12.0,18.0,50,0.00,,,0.00,Wunderground v.1.15,2013-05-15 00:32:00,
2013-05-14 19:33:00,85.2,64.5,29.56,SW,225,13.0,18.0,50,0.00,,,0.00,Wunderground v.1.15,2013-05-15 00:33:00,
2013-05-14 19:35:00,85.1,64.4,29.56,SW,223,13.0,18.0,50,0.00,,,0.00,Wunderground v.1.15,2013-05-15 00:35:00,
2013-05-14 19:36:00,85.0,64.3,29.56,SSW,209,13.0,18.0,50,0.00,,,0.00,Wunderground v.1.15,2013-05-15 00:36:00,
2013-05-14 19:38:00,84.8,64.1,29.56,SW,220,13.0,18.0,50,0.00,,,0.00,Wunderground v.1.15,2013-05-15 00:38:00,
2013-05-14 19:40:00,84.7,64.0,29.57,SW,221,13.0,13.0,50,0.00,,,0.00,Wunderground v.1.15,2013-05-15 00:40:00,
2013-05-14 19:41:00,84.6,63.9,29.56,SSW,212,13.0,13.0,50,0.00,,,0.00,Wunderground v.1.15,2013-05-15 00:41:00,
2013-05-14 19:42:00,84.5,63.8,29.56,SW,215,13.0,13.0,50,0.00,,,0.00,Wunderground v.1.15,2013-05-15 00:42:00,
2013-05-14 19:44:00,84.4,64.3,29.57,SSW,212,12.0,15.0,51,0.00,,,0.00,Wunderground v.1.15,2013-05-15 00:44:00,
2013-05-14 19:45:00,84.3,64.2,29.57,SW,215,12.0,15.0,51,0.00,,,0.00,Wunderground v.1.15,2013-05-15 00:45:00,
2013-05-14 19:46:00,84.2,64.1,29.57,SSW,213,12.0,15.0,51,0.00,,,0.00,Wunderground v.1.15,2013-05-15 00:46:00,
2013-05-14 19:51:00,83.8,63.7,29.57,SW,216,11.0,14.0,51,0.00,,,0.00,Wunderground v.1.15,2013-05-15 00:51:00,
2013-05-14 19:52:00,83.7,64.2,29.57,SW,219,11.0,14.0,52,0.00,,,0.00,Wunderground v.1.15,2013-05-15 00:52:00,
2013-05-14 19:54:00,83.5,63.5,29.57,SW,223,11.0,18.0,51,0.00,,,0.00,Wunderground v.1.15,2013-05-15 00:54:00,
2013-05-14 19:55:00,83.5,63.5,29.57,SW,219,11.0,18.0,51,0.00,,,0.00,Wunderground v.1.15,2013-05-15 00:55:00,
2013-05-14 19:56:00,83.4,63.4,29.57,SSW,213,12.0,18.0,51,0.00,,,0.00,Wunderground v.1.15,2013-05-15 00:56:00,
2013-05-14 19:58:00,83.3,63.8,29.57,SW,215,12.0,18.0,52,0.00,,,0.00,Wunderground v.1.15,2013-05-15 00:58:00,
2013-05-14 19:59:00,83.2,63.7,29.57,SW,215,12.0,18.0,52,0.00,,,0.00,Wunderground v.1.15,2013-05-15 00:59:00,
2013-05-14 20:02:00,83.1,63.1,29.57,SW,219,13.0,16.0,51,0.00,,,0.00,Wunderground v.1.15,2013-05-15 01:02:00,
2013-05-14 20:05:00,83.2,63.2,29.57,SSW,199,15.0,21.0,51,0.00,,,0.00,Wunderground v.1.15,2013-05-15 01:05:00,
2013-05-14 20:09:00,83.0,62.4,29.57,SW,219,16.0,21.0,50,0.00,,,0.00,Wunderground v.1.15,2013-05-15 01:09:00,
2013-05-14 20:10:00,83.0,62.4,29.57,SSW,209,16.0,16.0,50,0.00,,,0.00,Wunderground v.1.15,2013-05-15 01:10:00,
2013-05-14 20:11:00,83.0,62.4,29.57,SW,216,16.0,16.0,50,0.00,,,0.00,Wunderground v.1.15,2013-05-15 01:11:00,
2013-05-14 20:15:00,82.6,62.6,29.57,SW,221,15.0,20.0,51,0.00,,,0.00,Wunderground v.1.15,2013-05-15 01:15:00,
2013-05-14 20:16:00,82.5,62.5,29.57,SSW,213,15.0,20.0,51,0.00,,,0.00,Wunderground v.1.15,2013-05-15 01:16:00,
2013-05-14 20:17:00,82.5,62.5,29.57,SW,225,15.0,20.0,51,0.00,,,0.00,Wunderground v.1.15,2013-05-15 01:17:00,
2013-05-14 20:19:00,82.2,62.3,29.57,SW,223,14.0,20.0,51,0.00,,,0.00,Wunderground v.1.15,2013-05-15 01:19:00,
2013-05-14 20:22:00,82.0,62.1,29.57,SW,218,14.0,16.0,51,0.00,,,0.00,Wunderground v.1.15,2013-05-15 01:22:00,
2013-05-14 20:24:00,81.9,62.0,29.57,SW,222,14.0,16.0,51,0.00,,,0.00,Wunderground v.1.15,2013-05-15 01:24:00,
2013-05-14 20:27:00,81.6,62.3,29.57,SW,230,14.0,16.0,52,0.00,,,0.00,Wunderground v.1.15,2013-05-15 01:27:00,
2013-05-14 20:29:00,81.5,61.6,29.57,SW,221,13.0,16.0,51,0.00,,,0.00,Wunderground v.1.15,2013-05-15 01:29:00,
2013-05-14 20:30:00,81.4,62.1,29.57,SW,218,13.0,17.0,52,0.00,,,0.00,Wunderground v.1.15,2013-05-15 01:30:00,
2013-05-14 20:31:00,81.4,62.1,29.57,SW,219,13.0,17.0,52,0.00,,,0.00,Wunderground v.1.15,2013-05-15 01:31:00,
2013-05-14 20:35:00,81.2,61.9,29.57,SW,222,13.0,17.0,52,0.00,,,0.00,Wunderground v.1.15,2013-05-15 01:35:00,
2013-05-14 20:37:00,81.1,61.8,29.57,SW,227,14.0,17.0,52,0.00,,,0.00,Wunderground v.1.15,2013-05-15 01:37:00,
2013-05-14 20:41:00,80.9,61.6,29.58,SW,215,14.0,14.0,52,0.00,,,0.00,Wunderground v.1.15,2013-05-15 01:41:00,
2013-05-14 20:43:00,80.8,61.5,29.58,SW,224,14.0,18.0,52,0.00,,,0.00,Wunderground v.1.15,2013-05-15 01:43:00,
2013-05-14 20:44:00,80.8,61.5,29.58,SW,217,14.0,18.0,52,0.00,,,0.00,Wunderground v.1.15,2013-05-15 01:44:00,
2013-05-14 20:49:00,80.5,61.3,29.58,SW,223,14.0,18.0,52,0.00,,,0.00,Wunderground v.1.15,2013-05-15 01:49:00,
2013-05-14 20:50:00,80.5,61.8,29.58,SW,224,14.0,14.0,53,0.00,,,0.00,Wunderground v.1.15,2013-05-15 01:50:00,
2013-05-14 20:51:00,80.4,61.7,29.58,SW,219,14.0,14.0,53,0.00,,,0.00,Wunderground v.1.15,2013-05-15 01:51:00,
2013-05-14 20:52:00,80.3,61.1,29.58,SW,223,14.0,14.0,52,0.00,,,0.00,Wunderground v.1.15,2013-05-15 01:52:00,
2013-05-14 20:57:00,80.0,61.3,29.58,SW,226,13.0,20.0,53,0.00,,,0.00,Wunderground v.1.15,2013-05-15 01:57:00,
2013-05-14 20:58:00,79.9,61.2,29.58,SW,225,13.0,20.0,53,0.00,,,0.00,Wunderground v.1.15,2013-05-15 01:58:00,
2013-05-14 20:59:00,79.9,61.2,29.58,SW,225,13.0,20.0,53,0.00,,,0.00,Wunderground v.1.15,2013-05-15 01:59:00,
2013-05-14 21:00:00,79.9,61.2,29.58,SW,221,14.0,14.0,53,0.00,,,0.00,Wunderground v.1.15,2013-05-15 02:00:00,
2013-05-14 21:01:00,79.8,61.1,29.58,SW,221,14.0,14.0,53,0.00,,,0.00,Wunderground v.1.15,2013-05-15 02:01:00,
2013-05-14 21:03:00,79.8,61.1,29.58,SW,221,14.0,14.0,53,0.00,,,0.00,Wunderground v.1.15,2013-05-15 02:03:00,
2013-05-14 21:05:00,79.8,61.1,29.58,SW,215,15.0,15.0,53,0.00,,,0.00,Wunderground v.1.15,2013-05-15 02:05:00,
2013-05-14 21:07:00,79.7,61.1,29.58,SW,217,14.0,15.0,53,0.00,,,0.00,Wunderground v.1.15,2013-05-15 02:07:00,
2013-05-14 21:08:00,79.7,61.1,29.58,SW,218,14.0,15.0,53,0.00,,,0.00,Wunderground v.1.15,2013-05-15 02:08:00,
2013-05-14 21:11:00,79.5,60.9,29.58,SW,216,14.0,16.0,53,0.00,,,0.00,Wunderground v.1.15,2013-05-15 02:11:00,
2013-05-14 21:16:00,79.4,60.8,29.58,SSW,211,13.0,17.0,53,0.00,,,0.00,Wunderground v.1.15,2013-05-15 02:16:00,
2013-05-14 21:17:00,79.4,60.8,29.58,SW,223,14.0,17.0,53,0.00,,,0.00,Wunderground v.1.15,2013-05-15 02:17:00,
2013-05-14 21:18:00,79.4,60.8,29.59,SW,223,14.0,17.0,53,0.00,,,0.00,Wunderground v.1.15,2013-05-15 02:18:00,
2013-05-14 21:19:00,79.4,60.8,29.58,SW,227,14.0,17.0,53,0.00,,,0.00,Wunderground v.1.15,2013-05-15 02:19:00,
2013-05-14 21:25:00,79.0,60.4,29.59,SW,219,13.0,15.0,53,0.00,,,0.00,Wunderground v.1.15,2013-05-15 02:25:00,
2013-05-14 21:28:00,78.9,60.3,29.59,SW,215,13.0,15.0,53,0.00,,,0.00,Wunderground v.1.15,2013-05-15 02:28:00,
2013-05-14 21:32:00,78.9,60.3,29.59,SW,223,13.0,13.0,53,0.00,,,0.00,Wunderground v.1.15,2013-05-15 02:32:00,
2013-05-14 21:33:00,78.9,60.3,29.59,SSW,207,14.0,15.0,53,0.00,,,0.00,Wunderground v.1.15,2013-05-15 02:33:00,
2013-05-14 21:35:00,78.9,60.3,29.59,SW,227,14.0,18.0,53,0.00,,,0.00,Wunderground v.1.15,2013-05-15 02:35:00,
2013-05-14 21:37:00,78.9,60.3,29.59,SW,214,14.0,18.0,53,0.00,,,0.00,Wunderground v.1.15,2013-05-15 02:37:00,
2013-05-14 21:39:00,78.9,60.3,29.59,SW,223,15.0,18.0,53,0.00,,,0.00,Wunderground v.1.15,2013-05-15 02:39:00,
2013-05-14 21:42:00,78.9,60.3,29.59,SW,223,15.0,17.0,53,0.00,,,0.00,Wunderground v.1.15,2013-05-15 02:42:00,
2013-05-14 21:44:00,78.8,60.2,29.59,SW,223,15.0,18.0,53,0.00,,,0.00,Wunderground v.1.15,2013-05-15 02:44:00,
2013-05-14 21:47:00,78.9,60.3,29.59,SW,227,15.0,18.0,53,0.00,,,0.00,Wunderground v.1.15,2013-05-15 02:47:00,
2013-05-14 21:49:00,78.8,60.2,29.59,SW,223,16.0,18.0,53,0.00,,,0.00,Wunderground v.1.15,2013-05-15 02:49:00,
2013-05-14 21:51:00,78.7,60.1,29.59,SW,227,15.0,19.0,53,0.00,,,0.00,Wunderground v.1.15,2013-05-15 02:51:00,
2013-05-14 21:52:00,78.7,60.1,29.59,SW,225,15.0,19.0,53,0.00,,,0.00,Wunderground v.1.15,2013-05-15 02:52:00,
2013-05-14 21:54:00,78.6,60.0,29.59,SW,217,15.0,19.0,53,0.00,,,0.00,Wunderground v.1.15,2013-05-15 02:54:00,
2013-05-14 21:55:00,78.6,60.0,29.59,SW,223,15.0,19.0,53,0.00,,,0.00,Wunderground v.1.15,2013-05-15 02:55:00,
2013-05-14 21:56:00,78.6,60.0,29.59,SW,219,15.0,19.0,53,0.00,,,0.00,Wunderground v.1.15,2013-05-15 02:56:00,
2013-05-14 21:57:00,78.6,60.0,29.59,SW,223,15.0,19.0,53,0.00,,,0.00,Wunderground v.1.15,2013-05-15 02:57:00,
2013-05-14 22:01:00,78.5,59.9,29.59,SW,219,15.0,17.0,53,0.00,,,0.00,Wunderground v.1.15,2013-05-15 03:01:00,
2013-05-14 22:03:00,78.5,59.9,29.59,SW,222,15.0,17.0,53,0.00,,,0.00,Wunderground v.1.15,2013-05-15 03:03:00,
2013-05-14 22:04:00,78.5,59.9,29.59,SW,224,15.0,17.0,53,0.00,,,0.00,Wunderground v.1.15,2013-05-15 03:04:00,
2013-05-14 22:05:00,78.4,59.9,29.59,SW,216,15.0,19.0,53,0.00,,,0.00,Wunderground v.1.15,2013-05-15 03:05:00,
2013-05-14 22:06:00,78.4,59.9,29.59,SW,223,15.0,19.0,53,0.00,,,0.00,Wunderground v.1.15,2013-05-15 03:06:00,
2013-05-14 22:09:00,78.3,59.8,29.59,SW,223,16.0,19.0,53,0.00,,,0.00,Wunderground v.1.15,2013-05-15 03:09:00,
2013-05-14 22:11:00,78.3,59.8,29.59,SW,225,15.0,20.0,53,0.00,,,0.00,Wunderground v.1.15,2013-05-15 03:11:00,
2013-05-14 22:12:00,78.3,59.8,29.59,SW,227,15.0,20.0,53,0.00,,,0.00,Wunderground v.1.15,2013-05-15 03:12:00,
2013-05-14 22:13:00,78.3,59.8,29.59,SW,231,15.0,20.0,53,0.00,,,0.00,Wunderground v.1.15,2013-05-15 03:13:00,
2013-05-14 22:14:00,78.4,59.9,29.59,SSW,205,16.0,20.0,53,0.00,,,0.00,Wunderground v.1.15,2013-05-15 03:14:00,
2013-05-14 22:15:00,78.3,59.8,29.59,SW,225,16.0,23.0,53,0.00,,,0.00,Wunderground v.1.15,2013-05-15 03:15:00,
2013-05-14 22:18:00,78.3,59.8,29.59,SW,232,17.0,23.0,53,0.00,,,0.00,Wunderground v.1.15,2013-05-15 03:18:00,
2013-05-14 22:19:00,78.3,59.8,29.59,SW,224,17.0,23.0,53,0.00,,,0.00,Wunderground v.1.15,2013-05-15 03:19:00,
2013-05-14 22:20:00,78.3,59.8,29.59,SW,225,17.0,18.0,53,0.00,,,0.00,Wunderground v.1.15,2013-05-15 03:20:00,
2013-05-14 22:21:00,78.3,59.8,29.59,SW,224,17.0,18.0,53,0.00,,,0.00,Wunderground v.1.15,2013-05-15 03:21:00,
2013-05-14 22:24:00,78.3,59.8,29.59,SW,233,17.0,19.0,53,0.00,,,0.00,Wunderground v.1.15,2013-05-15 03:24:00,
2013-05-14 22:25:00,78.3,59.8,29.59,SW,225,18.0,19.0,53,0.00,,,0.00,Wunderground v.1.15,2013-05-15 03:25:00,
2013-05-14 22:27:00,78.3,59.2,29.59,SW,217,18.0,22.0,52,0.00,,,0.00,Wunderground v.1.15,2013-05-15 03:27:00,
2013-05-14 22:29:00,78.4,59.9,29.60,SW,223,18.0,22.0,53,0.00,,,0.00,Wunderground v.1.15,2013-05-15 03:29:00,
2013-05-14 22:30:00,78.3,59.8,29.60,SW,228,18.0,21.0,53,0.00,,,0.00,Wunderground v.1.15,2013-05-15 03:30:00,
2013-05-14 22:31:00,78.3,59.8,29.60,SW,227,19.0,21.0,53,0.00,,,0.00,Wunderground v.1.15,2013-05-15 03:31:00,
2013-05-14 22:34:00,78.2,59.7,29.60,SW,229,19.0,21.0,53,0.00,,,0.00,Wunderground v.1.15,2013-05-15 03:34:00,
2013-05-14 22:37:00,78.2,59.7,29.59,SW,227,19.0,21.0,53,0.00,,,0.00,Wunderground v.1.15,2013-05-15 03:37:00,
2013-05-14 22:39:00,78.1,59.6,29.60,SW,223,18.0,21.0,53,0.00,,,0.00,Wunderground v.1.15,2013-05-15 03:39:00,
2013-05-14 22:41:00,78.1,59.6,29.59,SW,231,19.0,20.0,53,0.00,,,0.00,Wunderground v.1.15,2013-05-15 03:41:00,
2013-05-14 22:44:00,78.1,59.6,29.59,SW,223,19.0,20.0,53,0.00,,,0.00,Wunderground v.1.15,2013-05-15 03:44:00,
2013-05-14 22:47:00,78.1,59.6,29.59,SW,223,20.0,20.0,53,0.00,,,0.00,Wunderground v.1.15,2013-05-15 03:47:00,
2013-05-14 22:48:00,78.0,59.5,29.59,SW,229,20.0,20.0,53,0.00,,,0.00,Wunderground v.1.15,2013-05-15 03:48:00,
2013-05-14 22:49:00,78.0,59.5,29.59,SW,229,20.0,20.0,53,0.00,,,0.00,Wunderground v.1.15,2013-05-15 03:49:00,
2013-05-14 22:50:00,77.9,59.4,29.59,SW,228,19.0,19.0,53,0.00,,,0.00,Wunderground v.1.15,2013-05-15 03:50:00,
2013-05-14 22:53:00,77.8,59.3,29.59,SW,226,19.0,21.0,53,0.00,,,0.00,Wunderground v.1.15,2013-05-15 03:53:00,
2013-05-14 22:54:00,77.8,59.3,29.59,SW,231,19.0,22.0,53,0.00,,,0.00,Wunderground v.1.15,2013-05-15 03:54:00,
2013-05-14 22:55:00,77.8,59.3,29.59,SW,225,18.0,22.0,53,0.00,,,0.00,Wunderground v.1.15,2013-05-15 03:55:00,
2013-05-14 22:56:00,77.7,59.2,29.59,SW,230,18.0,22.0,53,0.00,,,0.00,Wunderground v.1.15,2013-05-15 03:56:00,
2013-05-14 22:57:00,77.7,59.2,29.59,SW,215,18.0,22.0,53,0.00,,,0.00,Wunderground v.1.15,2013-05-15 03:57:00,
2013-05-14 23:00:00,77.7,59.2,29.59,SW,225,19.0,19.0,53,0.00,,,0.00,Wunderground v.1.15,2013-05-15 04:00:00,
2013-05-14 23:01:00,77.7,59.2,29.59,SW,230,19.0,19.0,53,0.00,,,0.00,Wunderground v.1.15,2013-05-15 04:01:00,
2013-05-14 23:03:00,77.8,59.3,29.59,SW,232,19.0,19.0,53,0.00,,,0.00,Wunderground v.1.15,2013-05-15 04:03:00,
2013-05-14 23:04:00,77.8,59.3,29.60,SW,224,19.0,22.0,53,0.00,,,0.00,Wunderground v.1.15,2013-05-15 04:04:00,
2013-05-14 23:07:00,77.9,59.4,29.59,SW,231,20.0,25.0,53,0.00,,,0.00,Wunderground v.1.15,2013-05-15 04:07:00,
2013-05-14 23:09:00,78.0,58.9,29.59,SW,224,20.0,25.0,52,0.00,,,0.00,Wunderground v.1.15,2013-05-15 04:09:00,
2013-05-14 23:10:00,78.0,58.9,29.60,SW,230,20.0,20.0,52,0.00,,,0.00,Wunderground v.1.15,2013-05-15 04:10:00,
2013-05-14 23:12:00,78.1,59.0,29.60,SW,221,20.0,22.0,52,0.00,,,0.00,Wunderground v.1.15,2013-05-15 04:12:00,
2013-05-14 23:13:00,78.2,59.1,29.60,SW,223,20.0,22.0,52,0.00,,,0.00,Wunderground v.1.15,2013-05-15 04:13:00,
2013-05-14 23:14:00,78.2,59.1,29.60,SW,233,20.0,24.0,52,0.00,,,0.00,Wunderground v.1.15,2013-05-15 04:14:00,
2013-05-14 23:17:00,78.2,59.1,29.59,SW,226,21.0,24.0,52,0.00,,,0.00,Wunderground v.1.15,2013-05-15 04:17:00,
2013-05-14 23:18:00,78.2,59.1,29.60,WSW,238,20.0,24.0,52,0.00,,,0.00,Wunderground v.1.15,2013-05-15 04:18:00,
2013-05-14 23:20:00,78.1,59.0,29.60,SW,224,20.0,20.0,52,0.00,,,0.00,Wunderground v.1.15,2013-05-15 04:20:00,
2013-05-14 23:21:00,78.0,58.9,29.60,SW,231,20.0,20.0,52,0.00,,,0.00,Wunderground v.1.15,2013-05-15 04:21:00,
2013-05-14 23:24:00,78.0,58.9,29.60,SW,231,20.0,22.0,52,0.00,,,0.00,Wunderground v.1.15,2013-05-15 04:24:00,
2013-05-14 23:25:00,78.0,58.4,29.60,SW,224,20.0,23.0,51,0.00,,,0.00,Wunderground v.1.15,2013-05-15 04:25:00,
2013-05-14 23:26:00,78.1,59.0,29.60,SW,228,20.0,25.0,52,0.00,,,0.00,Wunderground v.1.15,2013-05-15 04:26:00,
2013-05-14 23:27:00,78.1,58.5,29.60,SW,222,21.0,25.0,51,0.00,,,0.00,Wunderground v.1.15,2013-05-15 04:27:00,
2013-05-14 23:29:00,78.3,58.7,29.60,SW,229,21.0,25.0,51,0.00,,,0.00,Wunderground v.1.15,2013-05-15 04:29:00,
2013-05-14 23:33:00,78.4,58.8,29.60,SW,227,22.0,22.0,51,0.00,,,0.00,Wunderground v.1.15,2013-05-15 04:33:00,
2013-05-14 23:34:00,78.4,58.8,29.60,SW,232,22.0,28.0,51,0.00,,,0.00,Wunderground v.1.15,2013-05-15 04:34:00,
2013-05-14 23:38:00,78.5,58.3,29.60,SW,229,22.0,28.0,50,0.00,,,0.00,Wunderground v.1.15,2013-05-15 04:38:00,
2013-05-14 23:39:00,78.5,58.3,29.60,SW,229,22.0,28.0,50,0.00,,,0.00,Wunderground v.1.15,2013-05-15 04:39:00,
2013-05-14 23:42:00,78.6,58.4,29.60,SW,234,22.0,27.0,50,0.00,,,0.00,Wunderground v.1.15,2013-05-15 04:42:00,
2013-05-14 23:43:00,78.7,58.5,29.60,WSW,238,23.0,28.0,50,0.00,,,0.00,Wunderground v.1.15,2013-05-15 04:43:00,
2013-05-14 23:44:00,78.8,58.0,29.60,SW,233,23.0,28.0,49,0.00,,,0.00,Wunderground v.1.15,2013-05-15 04:44:00,
2013-05-14 23:45:00,78.8,58.6,29.60,SW,229,23.0,28.0,50,0.00,,,0.00,Wunderground v.1.15,2013-05-15 04:45:00,
2013-05-14 23:48:00,78.6,58.4,29.60,SW,228,23.0,28.0,50,0.00,,,0.00,Wunderground v.1.15,2013-05-15 04:48:00,
2013-05-14 23:50:00,78.7,57.9,29.60,SW,236,24.0,24.0,49,0.00,,,0.00,Wunderground v.1.15,2013-05-15 04:50:00,
2013-05-14 23:52:00,78.7,57.9,29.61,SW,236,23.0,24.0,49,0.00,,,0.00,Wunderground v.1.15,2013-05-15 04:52:00,
2013-05-14 23:53:00,78.7,57.9,29.61,SW,227,23.0,24.0,49,0.00,,,0.00,Wunderground v.1.15,2013-05-15 04:53:00,
2013-05-14 23:55:00,78.7,57.9,29.61,SW,232,23.0,26.0,49,0.00,,,0.00,Wunderground v.1.15,2013-05-15 04:55:00,
2013-05-14 23:56:00,78.6,58.4,29.60,SW,232,23.0,28.0,50,0.00,,,0.00,Wunderground v.1.15,2013-05-15 04:56:00,
2013-05-14 23:58:00,78.6,57.8,29.60,SW,234,24.0,28.0,49,0.00,,,0.00,Wunderground v.1.15,2013-05-15 04:58:00,